OPS 4682 DEB, 38408

Orbit data source: Space-Track

OPS 4682 DEB, 38408 is space debris in LEO originally from a launch on Sat, 03 Apr 1965 UTC launched from the Air Force Western Test Range (AFWTR). Debris objects in space refer to the collection of defunct objects orbiting the Earth. Examples of debris include non-operational satellites, rocket bodies, and fragments generated from explosions, collisions, or faulty payload assembly.

Loading next visibility...
Identifier
38408, 1965-027DM
Orbit
LEO
Country
Flag of USUS
Related business
Manufacturer
Unknown
Mission
Spacecraft
Bus & Motor
Unknown
Mass
Unknown
Launch date (UTC)
1965-04-03 (61 years ago)
Launch vehicle
Unknown
Launch site
Air Force Western Test Range (AFWTR)
Object type
Payload
Rocket body
Debris
Shape & HBR
Unknown shape, 0.1 m
Radar Cross Section
Small (<0.1 m²)

Expand to show TLE details & history
Last TLE update: 22 hours ago

TLE from 22 hours ago
0 OPS 4682 DEB
1 38408U 65027DM  26150.08161688  .00000923  00000-0  29393-2 0  9997
2 38408  90.2870  14.9762 0042153 212.6510 147.2007 13.02161908602855
Epoch: 2026-05-30T01:57Z
TLE epoch observation values (Epoch: 2026-05-30T01:57:31.698Z)
Latitude
0.00005°
Longitude
97.99136°
Altitude
1,283.601 km
Speed
7.201 km/s
True Right ascension
00h 59m 54s
True Declination
0° 00' 00"
Sunlit
Object was in daylight at epoch
Visualization orbit readout
Latitude
Unknown
Longitude
Unknown
Altitude
Unknown
Speed
Unknown
Apparent Right ascension
Unknown
Apparent Declination
Unknown
Sunlit
N/A
Visualization observer readout
Local Sidereal Time
09:14:42
Azimuth
Unknown
Elevation
Unknown
Doppler factor
Unknown
Orbital elements
Apogee altitude
1,282.91 km
Perigee altitude
1,218.594 km
Semi-major axis
7,628.889 km
Eccentricity
0.00422
Inclination
90.287°
RAAN
14.9762°
Arg. of periapsis
212.651°
True anomaly
147.46121°
Mean anomaly
147.2007°
Eccentric anomaly
147.33107°
Mean motion
3.25725 °/min
Orbital period
110.52 mins
BSTAR
0.0029393
Loading maneuver chart data...
Computing Atmospheric mass density...
Loading historical data...
Loading historical data...
Loading historical data...
Loading historical data...
Loading historical data...
Loading historical data...
Loading historical data...

Documentation

Showing up to 5 results
|